Weather in Krasnogorodsk

Russia / Pskov Oblast     56°49′49″N   28°16′58″E
В апреле 2022 года жителям России запретили посещать сайт meteo.paraplan.net по решению Генеральной прокуратуры. Аудитория сайта уменьшилась в 10 раз. Владельцы сайта не видят смысла в поддержке погодного сервера в таких условиях. Сайт будет закрыт в октябре.
temp.,
°C
wind,
m/s
gust,
m/s
humid.,
%
clouds,
%
prec.,
mm/h
press.,
hPa
HPBL,
m
30 september, fri
fri3000:00+5ssw25965 0.0 100697
03:00+5ssw24973 0.0 100886
06:00+4ssw24975 0.0 100972
09:00+7ssw39903 0.0 1010245
12:00+11sw487991 0.0 1012646
15:00+12w456598 0.1 10131244
18:00+9wnw24770 0.0 1014123
21:00+6ssw118924 0.0 101611
1 october, sat
sat100:00+5s1192100 0.0 101611
03:00+5sse1193100 0.0 101610
06:00+5ese1192100 0.0 101610
09:00+7ese1482100 0.0 1015129
12:00+11ene2269100 0.0 1013635
15:00+11e2372100 0.1 1012661
18:00+9se1191100 0.8 101116
21:00+7sw119435 1.0 101110
2 october, sun
sun200:00+6w11955 0.0 101110
03:00+4w11956 0.0 101110
06:00+4ssw119584 0.0 101010
09:00+6ese1190100 0.0 101072
12:00+10sse1277100 0.0 1010432
15:00+11ese1170100 0.0 1009678
18:00+8e1181100 0.0 100914
21:00+6ene1192100 0.0 100910
3 october, mon
mon300:00+6ene1192100 0.0 100916
03:00+5n1294100 0.0 100923
06:00+4nnw2396100 0.0 100857
09:00+6n258696 0.0 1007218
12:00+10nnw4663100 0.0 1006695
15:00+11nnw4755100 0.0 10051131
18:00+9nnw3766100 0.0 1004438
21:00+5nw288571 0.0 1004228
4 october, tue
tue400:00+3wnw39946 0.0 1003218
03:00+5w3987100 0.0 1003298
06:00+5w41085100 0.1 1003465
09:00+7w41078100 0.1 1003605
12:00+10wsw5965100 0.1 1005877
15:00+11wsw5964100 0.3 10061262
18:00+9wsw41085100 0.8 1007591
21:00+9w41089100 1.7 1009536